Location: Avella
(40.9667°N, 14.6000°E)
Time: 13:54:55
(UTC+00:00)

Daily predictions for brighter satellites

Satellite Brightness Start Highest point End
(mag) Time Altitude Azimuth Time Altitude Azimuth Time Altitude Azimuth
Cosmos 1607 4.2 19:00:18 10° NNW 19:06:44 68° NE 19:13:08 10° SE
NOSS 3-2 (C) 3.2 19:10:24 10° SW 19:15:16 80° NW 19:21:01 10° NNE
Cosmos 724 4.3 19:10:19 10° NNW 19:16:09 88° ENE 19:21:58 10° SSE
HBTSS-SV1 4.4 19:12:30 10° W 19:16:52 76° S 19:21:11 10° ESE
Cosmos 1151 Rocket 3.4 19:15:24 10° SSE 19:19:31 46° E 19:23:39 10° NNE
Meteor 1-18 Rocket 4.5 19:14:24 10° S 19:20:14 84° W 19:26:12 10° N
Cosmos 1953 4.2 19:23:44 10° NE 19:25:16 12° ENE 19:26:47 10° E
IRAS Rocket 4.3 19:22:27 10° SSE 19:28:01 89° E 19:33:41 10° NNW
Cosmos 2278 Rocket 3.7 19:25:17 10° SE 19:28:40 16° E 19:32:03 10° ENE
Sich 1 3.0 19:26:43 10° N 19:31:01 86° W 19:35:17 10° S
USA 238 DEB 4.1 19:26:16 10° S 19:31:29 33° ESE 19:37:06 10° NE
USA 238 4.1 19:26:31 10° S 19:31:43 32° ESE 19:37:18 10° NE
Meteor 2-10 Rocket 4.4 19:26:48 10° NNW 19:32:25 57° W 19:37:49 10° S
Cosmos 1408 Rocket 3.8 19:31:18 10° N 19:35:40 55° E 19:39:45 11° SSE
MetOp-B 4.3 19:30:37 10° S 19:35:57 78° WSW 19:41:20 10° NNW
Cosmos 1805 Rocket 3.7 19:33:00 10° N 19:37:18 57° E 19:41:17 12° SSE
Cosmos 1943 Rocket 3.1 19:35:51 10° SSE 19:40:34 28° ESE 19:45:18 10° NE
SL-8 R/B 4.2 19:42:23 10° SSW 19:46:39 35° SE 19:50:57 10° ENE
Lacrosse 5 rocket 3.4 19:44:44 10° W 19:47:52 27° NW 19:50:59 10° NNE
Cosmos 1340 Rocket 3.3 19:44:34 10° NNW 19:48:11 52° W 19:51:45 10° S
Cosmos 1743 Rocket 4.0 19:46:35 10° N 19:50:47 45° ENE 19:53:48 18° SE
YAOGAN 11 4.0 19:52:39 10° NNE 19:57:03 71° ESE 20:01:22 10° S
USA 245 3.8 19:58:57 21° ESE 20:00:02 27° ENE 20:02:24 10° NNE
Meteor 1-22 Rocket 4.3 19:58:33 10° N 20:03:44 54° ENE 20:07:19 20° SSE
Cosmos 1680 Rocket 4.1 20:01:04 17° SSE 20:04:23 35° E 20:09:04 10° NE
USA 186 0.6 20:11:26 57° S 20:11:46 81° WSW 20:13:49 10° NNW
Okean-O 2.9 20:09:07 15° S 20:12:38 65° W 20:17:00 10° NNW
Cosmos 1633 Rocket 4.1 20:08:49 10° NNE 20:12:43 30° ENE 20:14:32 22° ESE
CZ-4 R/B 4.0 20:11:11 10° WSW 20:13:01 13° W 20:14:52 10° WNW
NOSS 2-1 (E) 3.4 20:22:19 10° SSW 20:26:40 49° ESE 20:30:01 10° NE
Cosmos 1420 Rocket 4.0 20:22:30 10° NNW 20:27:41 67° ENE 20:30:22 28° SE
Cosmos 2344 3.5 20:23:42 10° SW 20:32:01 87° NW 20:39:13 10° NE
Meteor 1-15 Rocket 4.3 20:26:32 10° N 20:32:16 67° ENE 20:35:20 28° SSE
Ariane Rocket 3.0 20:31:59 28° SSE 20:34:43 75° ENE 20:39:47 10° N
SWARM C 4.3 20:31:32 10° N 20:34:46 72° E 20:35:26 51° SSE
SWARM A 4.2 20:31:44 10° N 20:34:55 58° E 20:35:24 50° SE
IRS-1C Rocket 4.0 20:34:29 28° SSE 20:37:20 78° ENE 20:42:36 10° N
USA 276 2.4 20:36:52 10° WSW 20:38:58 45° NNW 20:41:21 10° NE
CZ-4B R/B 2.7 20:37:35 35° S 20:39:09 86° WSW 20:43:11 10° NNW
Cosmos 2315 Rocket 4.0 20:36:52 23° S 20:40:50 68° E 20:46:59 10° NNE
Iridium 4 Rocket 3.6 20:37:43 19° S 20:41:31 72° W 20:46:18 10° N
Okean O Rocket 3.1 20:38:17 13° SSW 20:41:33 31° W 20:45:28 10° NNW
Terra 4.3 20:39:25 10° WSW 20:41:55 14° W 20:44:25 10° WNW
USA 59 Rocket 0.1 20:41:31 10° SW 20:45:27 56° NW 20:48:33 10° NNE
Cosmos 923 Rocket 4.3 20:42:12 10° SSW 20:47:25 67° WNW 20:52:37 10° NNE
Cosmos 1833 Rocket 3.3 20:42:31 10° NW 20:47:57 50° WSW 20:51:07 24° S
CZ-4B R/B 3.5 20:47:02 32° SSE 20:49:31 88° WSW 20:54:47 10° NNW
NOSS 2-1 (D) 3.4 20:46:12 10° SW 20:50:17 63° NW 20:53:31 10° NNE
Cosmos 1470 Rocket 3.8 20:49:10 10° N 20:53:33 56° E 20:54:41 42° SE
Cosmos 2112 Rocket 3.9 20:51:45 24° SSW 20:54:55 84° ESE 21:00:07 10° NNE
Cosmos 1328 Rocket 4.0 20:53:52 23° SSW 20:56:25 58° W 21:00:41 10° N
S3M 4.2 20:54:09 17° SSW 20:58:54 69° W 21:05:04 10° N
Okean 3 4.2 20:59:11 32° E 20:59:11 32° E 21:02:44 10° NNE
Cosmos 1953 3.2 20:57:02 10° NNW 21:00:19 35° W 21:01:28 27° SW
GP-B 4.2 20:59:29 10° NNW 21:03:35 40° W 21:06:09 20° SW
CZ-2C R/B 2.7 21:05:29 48° N 21:05:29 48° N 21:07:37 10° N
SWAS 4.2 21:05:19 60° SE 21:05:37 62° ESE 21:09:37 10° NNE
Cosmos 1371 Rocket 3.9 21:03:19 10° NNW 21:08:34 76° ENE 21:10:11 44° SE
NOSS 2-1 (C) 4.0 21:06:04 10° SW 21:10:02 47° NW 21:13:11 10° NNE
Cosmos 1709 Rocket 4.2 21:04:56 10° NNW 21:11:16 71° W 21:14:36 30° S
Cosmos 2082 Rocket 2.7 21:06:04 10° NNW 21:11:32 49° ENE 21:13:35 33° ESE
Cosmos 2278 Rocket 2.5 21:06:56 13° SSW 21:12:04 68° WNW 21:17:43 10° NNE
Cosmos 494 Rocket 4.3 21:09:00 19° SSW 21:12:42 66° WNW 21:17:56 10° NNE
Timation 2 Rocket 3.9 21:15:13 26° SSW 21:19:00 84° ESE 21:25:35 10° NNE
TIMED 4.4 21:20:31 59° ESE 21:20:34 59° ESE 21:24:46 10° NNE
Helios 1A 3.3 21:17:07 10° NNE 21:20:40 46° E 21:20:40 46° E
Cosmos 1174 3.5 21:21:43 78° S 21:21:56 84° ESE 21:25:31 10° NNE
USA 238 4.5 21:16:30 10° WSW 21:22:19 46° NW 21:28:44 10° NNE
Meteor 1-16 Rocket 4.4 21:17:33 10° NNW 21:23:11 68° W 21:25:27 37° SSW
Cosmos 1943 Rocket 3.4 21:18:46 10° SW 21:24:04 41° WNW 21:29:24 10° N
ARIANE 5 R/B 4.3 21:27:49 21° E 21:28:34 22° ENE 21:31:57 10° NNE
SL-8 R/B 4.2 21:24:07 10° WSW 21:28:47 60° NNW 21:33:29 10° ENE
Cosmos 1869 Rocket 4.0 21:28:59 10° N 21:33:08 45° ENE 21:33:18 45° E
ARGOS Delta rocket 4.1 21:30:10 10° NNE 21:35:14 53° E 21:35:46 51° ESE
CZ-2C R/B 4.5 21:30:54 10° NNE 21:35:10 37° E 21:35:10 37° E
Cosmos 1515 Rocket 4.1 21:36:36 41° SW 21:37:40 52° W 21:41:54 10° N
ALOS 2 4.0 21:44:00 26° E 21:44:29 27° ENE 21:48:10 10° NNE
Cosmos 1048 Rocket 4.1 21:43:50 41° SW 21:45:37 72° WNW 21:50:55 10° NNE
Meteor 1-12 Rocket 4.5 21:40:14 10° NNW 21:45:54 64° W 21:47:41 43° SSW
USA 81 3.9 21:42:54 10° N 21:48:11 89° W 21:49:12 60° S
Cosmos 2369 Rocket 3.0 21:50:39 33° E 21:50:39 33° E 21:55:25 10° NE
Cosmos 1400 Rocket 3.3 21:50:06 10° NNW 21:53:10 46° WNW 21:53:10 46° WNW
COSMOS 2406 3.7 21:48:12 10° NNW 21:53:43 49° ENE 21:55:18 39° ESE
ARIANE 6 FM1 Upper Stage 2.9 21:58:06 60° NE 21:58:06 60° NE 22:01:33 10° NE
Cosmos 2056 Rocket 4.4 21:53:39 10° NW 21:58:12 34° W 21:59:06 32° WSW
Cosmos 1656 Rocket 3.6 21:59:36 52° SSW 22:01:00 84° WNW 22:06:35 10° NNE
Cosmos 1295 Rocket 4.4 21:55:38 10° N 22:01:42 75° W 22:03:19 50° SSW
USA 215 4.0 22:00:17 16° E 22:05:21 49° NNE 22:11:36 10° NW
Okean 1-7 3.6 22:12:10 46° ENE 22:12:10 46° ENE 22:15:39 10° NNE
Cosmos 2074 Rocket 4.1 22:10:59 10° NNW 22:17:08 67° W 22:18:40 50° SSW
NOSS 3-1 (A) 4.3 22:18:34 23° E 22:18:34 23° E 22:21:25 10° NE
Spot 4 3.7 22:17:54 72° ESE 22:18:12 75° ENE 22:23:01 10° N
PSLV R/B 3.8 22:14:45 10° NNE 22:19:10 63° E 22:19:10 63° E
NOSS 3-1 (C) 2.6 22:21:45 83° SW 22:21:56 88° NW 22:27:14 10° NE
Helios 1B rocket 3.2 22:24:53 39° NW 22:24:53 39° NW 22:27:14 10° NNW
Cosmos 1818 3.8 22:30:25 54° ESE 22:30:25 54° ESE 22:35:29 10° NE
Lacrosse 4 Rocket 3.3 22:28:05 10° N 22:31:25 22° NE 22:32:24 20° ENE
ATLAS 5 CENTAUR R/B 3.1 22:37:18 22° NNW 22:37:18 22° NNW 22:39:01 10° NNE
Nadezhda 1 Rocket 4.1 22:36:02 48° SW 22:37:36 65° W 22:43:48 10° N
COSMOS 2455 3.1 22:38:34 50° ESE 22:38:48 51° ESE 22:44:35 10° NE
Meteor 1-24 Rocket 3.8 22:41:09 63° SSE 22:42:05 77° E 22:48:08 10° NNE
Cosmos 1992 Rocket 4.5 22:37:05 10° N 22:42:08 49° ENE 22:42:56 45° E
Cosmos 962 Rocket 4.5 22:38:38 10° N 22:45:02 78° E 22:46:23 57° SSE
Cosmos 2218 Rocket 4.4 22:39:41 10° N 22:45:50 52° ENE 22:47:21 43° ESE
Exosat Rocket 4.4 22:44:00 40° SW 22:46:05 62° WNW 22:53:46 10° NNE
Cosmos 2263 4.0 22:46:14 70° SSE 22:46:41 74° ESE 22:52:22 10° NNE
MetOp-A 4.1 22:52:47 45° NE 22:52:47 45° NE 22:55:49 10° N
Cosmos 2082 Rocket 3.6 22:50:54 10° NW 22:55:11 23° W 22:55:23 23° WSW
Cosmos 1452 Rocket 4.1 22:50:56 10° NNW 22:55:52 42° WSW 22:55:52 42° WSW
ACS3 Solar Sail 2.1 22:50:39 10° NNE 22:56:08 46° E 22:56:47 44° ESE
SL-4 R/B 3.8 22:55:58 21° NW 22:56:27 22° NNW 22:59:01 10° NNE
ARIANE 5 R/B 3.8 23:05:10 33° W 23:05:10 33° W 23:08:42 10° NNW
Meteor 2-5 Rocket 3.7 23:04:24 64° SSW 23:05:17 80° W 23:11:13 10° N
SL-8 Rocket 3.8 23:07:01 10° N 23:13:11 81° W 23:14:16 62° SSW
CZ-2C R/B 2.4 23:16:25 77° S 23:16:50 89° WSW 23:22:07 10° NNW
CZ-2C R/B 3.3 23:14:00 10° N 23:19:10 55° WNW 23:19:49 51° W
CZ-3B R/B 3.9 23:16:36 37° SW 23:19:30 86° NW 23:43:57 10° NE
ALOS 2 4.1 23:21:23 26° W 23:21:23 26° W 23:24:29 10° NW
Meteor 2-15 4.4 23:16:28 10° NNW 23:22:29 65° W 23:23:25 57° SW
Cosmos 1833 4.2 23:18:47 10° NNW 23:24:28 74° ENE 23:25:37 56° SE
Cosmos 2228 Rocket 4.0 23:26:00 38° WNW 23:26:00 38° WNW 23:29:59 10° N
Cosmos 1703 Rocket 3.7 23:26:16 72° NNW 23:26:16 72° NNW 23:30:17 10° N
Cosmos 2341 Rocket 4.0 23:21:39 10° NNW 23:27:48 65° W 23:28:53 55° SW
Cosmos 1959 Rocket 4.4 23:23:02 10° N 23:29:18 78° W 23:30:32 59° SSW
Landsat 5 4.0 23:29:14 10° NNE 23:32:03 50° NNE 23:32:03 50° NNE
Cosmos 1356 Rocket 4.1 23:29:12 10° NNW 23:32:18 46° NW 23:32:18 46° NW
Geosat 4.2 23:29:18 10° NE 23:34:12 54° ESE 23:34:16 54° ESE
Cosmos 2369 Rocket 3.4 23:32:23 27° W 23:34:23 35° WNW 23:39:30 10° N
Cosmos 1269 Rocket 3.9 23:41:39 69° SE 23:42:04 74° ESE 23:47:21 10° NNE
Meteor 2-8 Rocket 4.4 23:39:00 10° N 23:45:12 84° E 23:46:40 55° SSE
USA 215 3.3 23:47:34 50° SSW 23:48:18 53° SW 23:54:40 10° NW
In-Cosmos 22 Rocket 4.0 23:50:25 66° S 23:51:14 89° ESE 23:56:54 10° N
